Terug naar catalogus

RASSVET-3 21

ActiefPO
NORAD 100087·PAYLOAD·🇷🇺 Russia

Gelanceerd Jul 19, 2026 vanaf Plesetsk Cosmodrome

Loading…

Volgende Passages (komende 24 uur)

TLE

VersSource: Space-Track

Epoch: Sep 14, 2026, 13:39 UTC

1 A0087U 26165E   26257.56925533 -.00371171  00000-0 -40477-2 0  9991
2 A0087  82.3009 167.6749 0008163 152.5732 207.5959 15.64444611  8957

Volg RASSVET-3 21 in realtime met AllMySat

Download on the App Store